Hourly Data Report for September 10, 2017

All times are specified in Local Standard Time (LST). Add 1 hour to adjust for Daylight Saving Time where and when it is observed.

ST. PETERS
PRINCE EDWARD ISLAND

46°27'01.000" N
62°34'33.000" W
29.70 m
8300562
71310
ZSP

Download Data

Hourly Data (September 2017)
Hourly Data Report for September 10, 2017
Temp Definition
°C
Dew Point Temp Definition
°C
Rel Hum Definition
%
Wind Dir Definition
10's deg

Wind Spd Definition
km/h
Visibility Definition
km
Stn Press Definition
kPa
Hmdx Definition


Wind Chill Definition


Weather Definition


TIME
00:00 15.9 14.6 92 2 13   101.91     LegendNANA
01:00 15.7 14.4 92 1 15   101.90     LegendNANA
02:00 15.5 14.2 92 1 13   101.88     LegendNANA
03:00 15.4 13.9 91 1 14   101.86     LegendNANA
04:00 15.1 13.3 89 2 16   101.87     LegendNANA
05:00 14.6 12.6 88 36 14   101.91     LegendNANA
06:00 14.2 12.2 88 1 15   101.95     LegendNANA
07:00 14.1 11.8 86 36 14   101.98     LegendNANA
08:00 14.1 11.4 84 36 16   101.99     LegendNANA
09:00 13.9 11.1 83 35 16   102.03     LegendNANA
10:00 14.0 11.1 83 35 13   102.00     LegendNANA
11:00 14.2 11.0 81 35 13   101.98     LegendNANA
12:00 15.8 10.5 71 35 15   101.93     LegendNANA
13:00 14.9 10.6 75 35 14   101.89     LegendNANA
14:00 14.9 11.1 78 35 18   101.81     LegendNANA
15:00 15.4 11.2 76 35 17   101.77     LegendNANA
16:00 15.5 10.7 73 35 22   101.73     LegendNANA
17:00 15.2 11.0 76 35 19   101.70     LegendNANA
18:00 14.4 10.7 78 35 16   101.70     LegendNANA
19:00 13.8 9.9 77 34 13   101.70     LegendNANA
20:00 13.7 11.2 85 35 13   101.69     LegendNANA
21:00 13.7 10.8 83 35 13   101.64     LegendNANA
22:00 13.5 10.4 82 35 9   101.59     LegendNANA
23:00 13.1 9.2 77 34 8   101.54     LegendNANA

Notes on Data Quality.

Legend

  • E = Estimated
  • M = Missing
  • NA = Not Available
  • ‡ = Partner data that is not subject to review by the National Climate Archives
Date modified: